[[{"header":{"parameterUnit":"m.s-1","parameterCategory":2,"la1":30.2992,"la2":30.254,"lo1":-89.0895,"lo2":-89.0443,"dy":0.0025,"dx":0.0025,"nx":19,"ny":19,"refTime":"2026-05-14T21:00:00:Z","depth":"0","parameterNumber":2,"parameterNumberName":"U-component_of_CURRENTS"},"data":[0,0,0,-0.2311,-0.2315,-0.2527,-0.2528,-0.2746,-0.2747,0,0,0,0,0,0,0,0,0,0,0,-0.2226,-0.2226,-0.2311,-0.2315,-0.2527,-0.2528,-0.2746,-0.2747,0,0,0,0,0,0,0,0,0,0,0,-0.2225,-0.2226,-0.2226,-0.2316,-0.2526,-0.2528,-0.2745,-0.2607,0,0,0,0,0,0,0,0,0,0,-0.2412,-0.2332,-0.2226,-0.2226,-0.2316,-0.2526,-0.2528,-0.2602,-0.2616,-0.2623,0,-0.2626,0,-0.268,-0.2757,-0.2758,0,0,0,-0.2351,-0.232,-0.2367,-0.2226,-0.2318,-0.2526,-0.2441,-0.261,-0.2626,-0.2642,-0.2629,-0.2638,-0.2683,-0.2758,-0.2759,-0.2721,-0.272,0,0,-0.2339,-0.2285,-0.2355,-0.2375,-0.2332,-0.2434,-0.2447,-0.2621,-0.2624,-0.263,-0.2644,-0.2687,-0.2759,-0.276,-0.2723,-0.2721,0,0,0,-0.2281,-0.2276,-0.2321,-0.2365,-0.2402,-0.2439,-0.2455,-0.2618,-0.2628,-0.2647,-0.2689,-0.276,-0.2762,-0.2725,-0.2722,-0.2702,0,0,0,-0.2276,-0.224,-0.2315,-0.2288,-0.2397,-0.2521,-0.2447,-0.2616,-0.2638,-0.2688,-0.276,-0.2763,-0.2726,-0.2723,-0.2707,-0.2734,0,0,0,-0.2223,-0.2236,-0.2245,-0.2284,-0.236,-0.2519,-0.2544,-0.2624,-0.2662,-0.2758,-0.2764,-0.2728,-0.2724,-0.2711,-0.2738,-0.2728,0,0,0,-0.2184,-0.2198,-0.2243,-0.2273,-0.2357,-0.2431,-0.2544,-0.2618,-0.2686,-0.2761,-0.2726,-0.2723,-0.2712,-0.2741,-0.2731,-0.2602,-0.2581,0,0,-0.2186,-0.2197,-0.2216,-0.2262,-0.233,-0.2407,-0.2464,-0.2601,-0.2628,-0.2676,-0.2677,-0.2705,-0.2738,-0.2729,-0.2391,-0.2377,0,0,0,-0.2208,-0.2225,-0.2247,-0.2302,-0.2352,-0.2425,-0.2525,-0.2538,-0.2585,-0.2647,-0.2636,-0.2657,-0.2653,-0.2576,-0.2563,-0.2508,-0.2706,-0.2706,-0.2706,-0.216,-0.2215,-0.2254,-0.2323,-0.2358,-0.2433,-0.2472,-0.2497,-0.2527,-0.2495,-0.2588,-0.2498,-0.2409,-0.24,-0.2341,-0.2507,-0.2507,-0.2507,-0.2507,-0.2168,-0.2183,-0.2262,-0.2319,-0.2371,-0.2408,-0.2452,-0.2467,-0.2478,-0.2483,-0.2479,-0.2492,-0.2386,-0.2328,-0.2504,-0.2505,-0.2505,-0.2505,-0.2505,-0.2118,-0.2131,-0.2189,-0.2274,-0.2337,-0.2401,-0.2422,-0.246,-0.2467,-0.2473,-0.2389,-0.2387,-0.2389,-0.2461,-0.2461,-0.2461,-0.2461,-0.2461,-0.2461,-0.2015,-0.2081,-0.2124,-0.2227,-0.2281,-0.2336,-0.2401,-0.2408,-0.2388,-0.2363,-0.2362,-0.2309,-0.2485,-0.2548,-0.2461,-0.2461,-0.2461,-0.2461,-0.2461,-0.1908,-0.1959,-0.2012,-0.2075,-0.2156,-0.2078,-0.2274,-0.2214,-0.2253,-0.2207,-0.2143,-0.2296,-0.2304,-0.2311,-0.2366,-0.2239,-0.2239,-0.2239,-0.2239,-0.1808,-0.185,-0.1853,-0.1871,-0.1905,-0.1908,-0.1789,-0.1891,-0.1963,-0.194,-0.2022,-0.1975,-0.1986,-0.1976,-0.1991,-0.2039,-0.1832,-0.1832,-0.1832,-0.1713,-0.175,-0.1661,-0.1672,-0.171,-0.1605,-0.1388,-0.1488,-0.1678,-0.1817,-0.1971,-0.1988,-0.1925,-0.1948,-0.194,-0.1965,-0.2049,0,0]},{"header":{"parameterUnit":"m.s-1","parameterCategory":2,"la1":30.2992,"la2":30.254,"lo1":-89.0895,"lo2":-89.0443,"dy":0.0025,"dx":0.0025,"nx":19,"ny":19,"refTime":"2026-05-14T21:00:00:Z","depth":"0","parameterNumber":3,"parameterNumberName":"V-component_of_CURRENTS"},"data":[0,0,0,-0.0057,-0.0055,0.015,0.0152,0.0544,0.0547,0,0,0,0,0,0,0,0,0,0,0,-0.0116,-0.0116,-0.0057,-0.0054,0.015,0.0152,0.0543,0.0547,0,0,0,0,0,0,0,0,0,0,0,-0.0117,-0.0116,-0.0116,-0.0054,0.015,0.0152,0.0542,0.0371,0,0,0,0,0,0,0,0,0,0,0.0162,0.0066,-0.0116,-0.0116,-0.0053,0.0149,0.0152,0.0362,0.0381,0.0469,0,0.0465,0,0.0486,0.057,0.0572,0,0,0,0.0008,0.0049,0.009,-0.0116,-0.0052,0.0149,0.0075,0.0372,0.0395,0.0495,0.0471,0.0484,0.0493,0.0573,0.0574,0.0631,0.0629,0,0,-0.0004,-0.0048,0.0074,0.0102,-0.0041,0.0068,0.0081,0.0385,0.0401,0.0472,0.0493,0.0499,0.0575,0.0578,0.0633,0.063,0,0,0,-0.0078,-0.0057,-0.0023,0.0087,0.0098,0.0073,0.0087,0.0389,0.0394,0.0497,0.0504,0.0577,0.0581,0.0635,0.0632,0.0463,0,0,0,-0.0082,-0.0104,-0.003,-0.0049,0.009,0.0226,0.0085,0.0374,0.0408,0.0502,0.0577,0.0585,0.0637,0.0633,0.0472,0.0438,0,0,0,-0.0118,-0.0107,-0.0101,-0.0053,0.0005,0.0221,0.0248,0.0383,0.0411,0.0572,0.0586,0.0639,0.0634,0.048,0.045,0.0472,0,0,0,-0.0143,-0.0166,-0.0102,-0.0123,0.0002,0.0036,0.0246,0.0318,0.0429,0.0579,0.0637,0.0632,0.0483,0.0458,0.0478,0.0594,0.0577,0,0,-0.0192,-0.0172,-0.0188,-0.0128,-0.0139,0.0015,0.0025,0.0261,0.0389,0.0564,0.0566,0.0469,0.0451,0.0474,0.0317,0.0309,0,0,0,-0.0217,-0.0233,-0.0227,-0.0212,-0.0161,-0.0094,0.0085,0.0148,0.028,0.0422,0.0419,0.0413,0.0434,0.0513,0.0504,0.0733,0.061,0.0611,0.0611,-0.0317,-0.0296,-0.033,-0.03,-0.0273,-0.0167,-0.0108,0.0009,0.0148,0.0124,0.0235,0.0084,0.0157,0.0154,0.0384,0.017,0.0169,0.0169,0.0168,-0.0423,-0.0452,-0.0415,-0.0441,-0.0379,-0.0355,-0.0241,-0.0167,-0.0065,0.0011,0.0041,0.0279,0.0136,0.0384,0.0156,0.0159,0.016,0.0161,0.0162,-0.0507,-0.0519,-0.0523,-0.0546,-0.0533,-0.0454,-0.0403,-0.032,-0.0194,-0.0183,0.0022,0.0027,0.0296,-0.0139,-0.014,-0.014,-0.014,-0.014,-0.014,-0.0591,-0.0596,-0.0628,-0.065,-0.0627,-0.0596,-0.0493,-0.0408,-0.0242,-0.0127,-0.0125,0.0253,-0.0006,0.0064,-0.0143,-0.0142,-0.0142,-0.0142,-0.0141,-0.0689,-0.0681,-0.0714,-0.0705,-0.0642,-0.0529,-0.0501,-0.0308,-0.0245,-0.0139,0.0247,-0.0062,0.0042,0.0052,0.0123,-0.0055,-0.0055,-0.0055,-0.0055,-0.0744,-0.0751,-0.0704,-0.0625,-0.055,-0.045,-0.0245,-0.0121,0.0157,0.0362,0.0407,0.0492,0.0478,0.0614,0.0611,0.0696,0.0668,0.0669,0.067,-0.0793,-0.0761,-0.0672,-0.0557,-0.0426,-0.0288,-0.0027,0.0199,0.0545,0.0719,0.0695,0.0665,0.0807,0.0768,0.0998,0.0975,0.1121,0,0]}],[{"header":{"parameterUnit":"m.s-1","parameterCategory":2,"la1":30.2992,"la2":30.254,"lo1":-89.0895,"lo2":-89.0443,"dy":0.0025,"dx":0.0025,"nx":19,"ny":19,"refTime":"2026-05-14T21:00:00:Z","depth":"2","parameterNumber":2,"parameterNumberName":"U-component_of_CURRENTS"},"data":[0,0,0,-0.2081,-0.2083,-0.2181,-0.2181,-0.2302,-0.2303,0,0,0,0,0,0,0,0,0,0,0,-0.2035,-0.2035,-0.208,-0.2083,-0.2181,-0.2181,-0.2302,-0.2303,0,0,0,0,0,0,0,0,0,0,0,-0.2035,-0.2035,-0.2036,-0.2083,-0.2181,-0.2181,-0.2301,-0.2228,0,0,0,0,0,0,0,0,0,0,-0.2134,-0.2083,-0.2035,-0.2036,-0.2084,-0.218,-0.2181,-0.2225,-0.2233,-0.2256,0,-0.2265,0,-0.2293,-0.2311,-0.2311,0,0,0,-0.2082,-0.2077,-0.2115,-0.2036,-0.2085,-0.218,-0.2136,-0.2229,-0.2238,-0.2267,-0.2267,-0.2272,-0.2295,-0.2312,-0.2312,-0.2331,-0.233,0,0,-0.2077,-0.2045,-0.2108,-0.212,-0.2103,-0.2133,-0.2139,-0.2235,-0.2234,-0.2268,-0.2275,-0.2297,-0.2312,-0.2313,-0.2332,-0.2331,0,0,0,-0.2062,-0.2041,-0.2076,-0.2114,-0.2137,-0.2136,-0.2143,-0.223,-0.2245,-0.2277,-0.2299,-0.2313,-0.2315,-0.2333,-0.2332,-0.2357,0,0,0,-0.2059,-0.2033,-0.2074,-0.2055,-0.2134,-0.2184,-0.2135,-0.2237,-0.225,-0.2298,-0.2313,-0.2316,-0.2333,-0.2332,-0.2358,-0.2376,0,0,0,-0.2032,-0.203,-0.2041,-0.2053,-0.2099,-0.2183,-0.2203,-0.2241,-0.2263,-0.2311,-0.2316,-0.2334,-0.2332,-0.2359,-0.2377,-0.2373,0,0,0,-0.1997,-0.2012,-0.204,-0.2068,-0.2098,-0.2158,-0.2202,-0.2251,-0.2289,-0.2314,-0.2333,-0.2332,-0.2359,-0.2377,-0.2374,-0.2226,-0.2213,0,0,-0.1999,-0.2011,-0.2031,-0.206,-0.2122,-0.2145,-0.2196,-0.2264,-0.2266,-0.2304,-0.2305,-0.2358,-0.2377,-0.2373,-0.2131,-0.2121,0,0,0,-0.2023,-0.2039,-0.2061,-0.2106,-0.215,-0.2196,-0.2247,-0.2257,-0.2281,-0.2282,-0.2316,-0.2327,-0.2325,-0.2235,-0.2226,-0.2324,-0.2324,-0.2324,-0.2324,-0.1979,-0.2032,-0.2071,-0.2138,-0.2174,-0.2232,-0.2259,-0.2271,-0.2283,-0.2271,-0.2317,-0.2291,-0.2192,-0.2184,-0.2278,-0.2278,-0.2278,-0.2278,-0.2278,-0.1989,-0.2007,-0.2083,-0.214,-0.2195,-0.2234,-0.2285,-0.2293,-0.2305,-0.2295,-0.2292,-0.2227,-0.2176,-0.2279,-0.2279,-0.2279,-0.2278,-0.2278,-0.2278,-0.1946,-0.196,-0.2016,-0.2098,-0.2166,-0.2233,-0.2268,-0.2308,-0.2316,-0.2326,-0.2207,-0.2204,-0.2333,-0.2315,-0.2315,-0.2315,-0.2315,-0.2315,-0.2315,-0.1856,-0.1919,-0.1943,-0.2055,-0.2091,-0.2163,-0.2251,-0.2263,-0.2239,-0.2213,-0.2211,-0.2303,-0.2302,-0.2333,-0.2316,-0.2316,-0.2316,-0.2316,-0.2316,-0.1761,-0.18,-0.1812,-0.1851,-0.196,-0.1988,-0.2118,-0.2095,-0.2122,-0.2071,-0.214,-0.2144,-0.2123,-0.2126,-0.2151,-0.2089,-0.2089,-0.2089,-0.2089,-0.166,-0.1699,-0.1647,-0.1662,-0.1745,-0.187,-0.1813,-0.1813,-0.1864,-0.186,-0.187,-0.1819,-0.1832,-0.1793,-0.1805,-0.1823,-0.1675,-0.1675,-0.1674,-0.1561,-0.1556,-0.1459,-0.1506,-0.1609,-0.1704,-0.1614,-0.1471,-0.148,-0.1662,-0.1841,-0.2053,-0.2002,-0.2014,-0.1976,-0.1986,-0.2023,0,0]},{"header":{"parameterUnit":"m.s-1","parameterCategory":2,"la1":30.2992,"la2":30.254,"lo1":-89.0895,"lo2":-89.0443,"dy":0.0025,"dx":0.0025,"nx":19,"ny":19,"refTime":"2026-05-14T21:00:00:Z","depth":"2","parameterNumber":3,"parameterNumberName":"V-component_of_CURRENTS"},"data":[0,0,0,-0.0179,-0.0178,-0.0108,-0.0108,0.0014,0.0015,0,0,0,0,0,0,0,0,0,0,0,-0.0206,-0.0206,-0.0179,-0.0178,-0.0108,-0.0108,0.0013,0.0015,0,0,0,0,0,0,0,0,0,0,0,-0.0207,-0.0206,-0.0206,-0.0177,-0.0108,-0.0108,0.0013,-0.0045,0,0,0,0,0,0,0,0,0,0,-0.0116,-0.0155,-0.0206,-0.0206,-0.0177,-0.0108,-0.0108,-0.0048,-0.0041,-0.0011,0,-0.001,0,0.0004,0.0023,0.0023,0,0,0,-0.0168,-0.0161,-0.0137,-0.0206,-0.0176,-0.0109,-0.0137,-0.0045,-0.0037,-0.0002,-0.0008,-0.0003,0.0006,0.0023,0.0024,0.0095,0.0094,0,0,-0.0172,-0.0193,-0.0143,-0.0133,-0.0169,-0.0139,-0.0135,-0.004,-0.0039,-0.0007,-0.0001,0.0008,0.0024,0.0025,0.0095,0.0095,0,0,0,-0.0189,-0.0196,-0.0176,-0.0138,-0.0128,-0.0137,-0.0132,-0.0043,-0.0035,0.0001,0.001,0.0025,0.0026,0.0095,0.0095,0.0009,0,0,0,-0.0191,-0.0207,-0.0178,-0.019,-0.0131,-0.009,-0.0137,-0.0042,-0.0031,0.0009,0.0025,0.0028,0.0095,0.0095,0.0011,-0.0031,0,0,0,-0.0208,-0.0208,-0.0203,-0.0191,-0.0164,-0.0092,-0.0078,-0.0039,-0.0025,0.0023,0.0028,0.0095,0.0095,0.0014,-0.0027,-0.0001,0,0,0,-0.0228,-0.025,-0.0204,-0.0226,-0.0165,-0.0149,-0.0079,-0.0056,-0.0024,0.0026,0.0095,0.0095,0.0014,-0.0024,0.0001,0.0061,0.0057,0,0,-0.0272,-0.0255,-0.027,-0.0227,-0.0239,-0.0157,-0.0153,-0.0078,-0.0013,0.0068,0.007,0.0011,-0.0026,-0.0001,0.0043,0.004,0,0,0,-0.0295,-0.0308,-0.0304,-0.0296,-0.0258,-0.0222,-0.0144,-0.0099,-0.0029,0.0005,0.0029,0.0009,0.0028,0.0068,0.0065,0.0093,0.0093,0.0093,0.0093,-0.0383,-0.0363,-0.0391,-0.0362,-0.034,-0.0261,-0.0221,-0.0138,-0.0074,-0.0055,-0.0048,-0.0071,-0.003,-0.0031,-0.0028,-0.0029,-0.0029,-0.0029,-0.0029,-0.0475,-0.05,-0.046,-0.048,-0.0419,-0.0396,-0.0285,-0.0229,-0.0143,-0.0103,-0.008,-0.0009,-0.0039,-0.0036,-0.0035,-0.0034,-0.0033,-0.0032,-0.0032,-0.055,-0.0561,-0.056,-0.0576,-0.0554,-0.0477,-0.0429,-0.0339,-0.0224,-0.0207,-0.0096,-0.0093,-0.0111,-0.0175,-0.0175,-0.0175,-0.0176,-0.0176,-0.0176,-0.0632,-0.063,-0.0681,-0.0674,-0.0679,-0.064,-0.0514,-0.0435,-0.0279,-0.0178,-0.0175,-0.0119,-0.0114,-0.0116,-0.0177,-0.0177,-0.0177,-0.0177,-0.0176,-0.0737,-0.0728,-0.0821,-0.0844,-0.0853,-0.0857,-0.0669,-0.0446,-0.032,-0.0224,-0.013,-0.0131,-0.0084,-0.008,-0.008,-0.0127,-0.0127,-0.0127,-0.0127,-0.0806,-0.0809,-0.0955,-0.1035,-0.1062,-0.0979,-0.083,-0.0492,-0.021,-0.0084,-0.0086,-0.0059,-0.0061,-0.0011,-0.0009,-0.0005,-0.0034,-0.0034,-0.0034,-0.0877,-0.0924,-0.1051,-0.1143,-0.1191,-0.1121,-0.0988,-0.0532,-0.0105,-0.0033,-0.0101,-0.0115,-0.0078,-0.0081,-0.0003,-0.0,0.0006,0,0]}],[{"header":{"parameterUnit":"m.s-1","parameterCategory":2,"la1":30.2992,"la2":30.254,"lo1":-89.0895,"lo2":-89.0443,"dy":0.0025,"dx":0.0025,"nx":19,"ny":19,"refTime":"2026-05-14T21:00:00:Z","depth":"4","parameterNumber":2,"parameterNumberName":"U-component_of_CURRENTS"},"data":[0,0,0,-0.1608,-0.161,-0.1707,-0.1707,-0.1735,-0.1736,0,0,0,0,0,0,0,0,0,0,0,-0.1573,-0.1574,-0.1607,-0.161,-0.1707,-0.1707,-0.1735,-0.1736,0,0,0,0,0,0,0,0,0,0,0,-0.1573,-0.1574,-0.1575,-0.1611,-0.1707,-0.1707,-0.1735,-0.1682,0,0,0,0,0,0,0,0,0,0,-0.1598,-0.158,-0.1574,-0.1576,-0.1612,-0.1707,-0.1707,-0.168,-0.1685,-0.167,0,-0.1703,0,-0.1727,-0.1737,-0.1737,0,0,0,-0.1593,-0.1576,-0.1613,-0.1576,-0.1613,-0.1707,-0.1658,-0.1683,-0.1689,-0.1676,-0.1704,-0.1706,-0.1728,-0.1737,-0.1737,-0.1805,-0.1806,0,0,-0.1587,-0.1574,-0.1609,-0.1617,-0.1661,-0.1655,-0.1662,-0.1688,-0.1694,-0.1704,-0.1707,-0.1728,-0.1737,-0.1737,-0.1804,-0.1805,0,0,0,-0.1584,-0.157,-0.1608,-0.1615,-0.1645,-0.1659,-0.1666,-0.1693,-0.171,-0.1708,-0.1729,-0.1737,-0.1738,-0.1804,-0.1805,-0.1876,0,0,0,-0.158,-0.157,-0.1606,-0.1596,-0.1645,-0.1682,-0.167,-0.1708,-0.1712,-0.1728,-0.1737,-0.1738,-0.1803,-0.1804,-0.1873,-0.1875,0,0,0,-0.1565,-0.1567,-0.1589,-0.1595,-0.1647,-0.1683,-0.17,-0.1709,-0.1725,-0.1737,-0.1738,-0.1803,-0.1804,-0.187,-0.1871,-0.1877,0,0,0,-0.1532,-0.1559,-0.1589,-0.1632,-0.1647,-0.1725,-0.17,-0.1755,-0.1774,-0.1737,-0.1803,-0.1805,-0.1869,-0.1868,-0.1875,-0.1629,0,0,0,-0.154,-0.1559,-0.1587,-0.1616,-0.1693,-0.1709,-0.1784,-0.18,-0.1784,-0.1783,-0.1785,-0.1874,-0.1871,-0.1877,-0.1714,0,0,0,0,-0.1573,-0.1597,-0.1626,-0.1684,-0.1743,-0.1801,-0.1834,-0.1851,-0.1878,-0.1806,-0.1882,-0.1877,-0.1879,-0.173,-0.1811,-0.1811,-0.1811,-0.1811,-0.1811,-0.1543,-0.1597,-0.1652,-0.173,-0.1788,-0.1872,-0.1913,-0.1939,-0.1929,-0.1961,-0.1944,-0.2004,-0.1853,-0.1967,-0.1967,-0.1968,-0.1968,-0.1968,-0.1968,-0.1553,-0.1578,-0.1672,-0.1746,-0.1831,-0.1903,-0.1987,-0.2008,-0.2044,-0.2026,-0.2025,-0.1826,-0.1975,-0.1974,-0.1973,-0.1972,-0.1972,-0.1971,-0.1971,-0.1513,-0.1531,-0.1607,-0.1716,-0.1821,-0.192,-0.198,-0.2049,-0.2079,-0.2099,-0.1909,-0.2035,-0.2017,-0.2097,-0.2097,-0.2097,-0.2097,-0.2097,-0.2097,-0.1423,-0.15,-0.1544,-0.1684,-0.174,-0.1842,-0.1977,-0.1997,-0.2052,-0.1938,-0.2104,-0.2046,-0.2042,-0.2024,-0.2098,-0.2098,-0.2098,-0.2098,-0.2098,-0.1336,-0.1383,-0.1416,-0.1473,-0.1607,-0.1677,-0.1856,-0.1857,-0.1854,-0.1792,-0.1845,-0.1857,-0.1794,-0.1796,-0.1765,-0.1767,-0.1764,-0.1761,0,-0.1242,-0.1283,-0.1269,-0.13,-0.1362,-0.1542,-0.1515,-0.1589,-0.1635,-0.1574,-0.1828,-0.1886,-0.1894,-0.1822,-0.1819,-0.1782,0,0,0,-0.1157,-0.116,-0.1098,-0.1161,-0.1221,-0.1322,-0.1492,-0.1448,-0.1649,-0.1588,-0.1687,-0.1706,-0.1961,-0.2102,-0.2034,-0.2029,-0.1994,0,0]},{"header":{"parameterUnit":"m.s-1","parameterCategory":2,"la1":30.2992,"la2":30.254,"lo1":-89.0895,"lo2":-89.0443,"dy":0.0025,"dx":0.0025,"nx":19,"ny":19,"refTime":"2026-05-14T21:00:00:Z","depth":"4","parameterNumber":3,"parameterNumberName":"V-component_of_CURRENTS"},"data":[0,0,0,-0.0192,-0.0192,-0.02,-0.02,-0.0256,-0.0257,0,0,0,0,0,0,0,0,0,0,0,-0.0196,-0.0196,-0.0192,-0.0192,-0.02,-0.02,-0.0256,-0.0257,0,0,0,0,0,0,0,0,0,0,0,-0.0196,-0.0196,-0.0196,-0.0192,-0.02,-0.02,-0.0256,-0.0241,0,0,0,0,0,0,0,0,0,0,-0.0228,-0.0228,-0.0196,-0.0196,-0.0192,-0.02,-0.02,-0.024,-0.0242,-0.0262,0,-0.026,0,-0.0253,-0.026,-0.0261,0,0,0,-0.0202,-0.0226,-0.0219,-0.0196,-0.0192,-0.02,-0.0199,-0.0241,-0.0243,-0.0265,-0.0261,-0.0262,-0.0254,-0.0261,-0.0261,-0.0213,-0.0212,0,0,-0.0202,-0.0209,-0.0217,-0.022,-0.0191,-0.0199,-0.0199,-0.0242,-0.025,-0.0261,-0.0263,-0.0255,-0.0261,-0.0262,-0.0214,-0.0213,0,0,0,-0.0193,-0.0208,-0.02,-0.0219,-0.0213,-0.0199,-0.02,-0.0248,-0.0242,-0.0264,-0.0256,-0.0262,-0.0262,-0.0215,-0.0213,-0.0232,0,0,0,-0.0194,-0.0202,-0.02,-0.0206,-0.0212,-0.0225,-0.0205,-0.024,-0.0244,-0.0255,-0.0262,-0.0263,-0.0216,-0.0214,-0.0234,-0.0274,0,0,0,-0.0196,-0.0203,-0.02,-0.0206,-0.0202,-0.0224,-0.0222,-0.024,-0.0239,-0.0261,-0.0263,-0.0217,-0.0214,-0.0235,-0.0275,-0.0251,0,0,0,-0.0207,-0.0226,-0.0201,-0.0222,-0.0202,-0.0201,-0.0221,-0.0232,-0.0249,-0.0262,-0.0216,-0.0213,-0.0236,-0.0276,-0.0252,-0.0299,0,0,0,-0.0241,-0.0231,-0.0243,-0.022,-0.0234,-0.0201,-0.02,-0.0231,-0.0215,-0.021,-0.0209,-0.0233,-0.0275,-0.0252,-0.0163,0,0,0,0,-0.026,-0.027,-0.0269,-0.027,-0.0251,-0.0233,-0.0228,-0.0198,-0.0175,-0.0211,-0.0181,-0.0207,-0.0192,-0.0218,-0.0202,-0.0203,-0.0203,-0.0203,-0.0203,-0.0323,-0.031,-0.0332,-0.0312,-0.0299,-0.0251,-0.0225,-0.0174,-0.0168,-0.0126,-0.0182,-0.0127,-0.015,-0.0118,-0.0118,-0.0118,-0.0118,-0.0118,-0.0118,-0.0387,-0.0405,-0.0376,-0.0395,-0.0349,-0.0334,-0.0239,-0.0203,-0.0139,-0.0128,-0.0111,-0.0186,-0.0119,-0.0119,-0.0119,-0.0119,-0.0119,-0.0119,-0.0119,-0.0438,-0.0445,-0.0451,-0.0469,-0.0452,-0.0394,-0.0355,-0.0274,-0.0177,-0.0159,-0.0162,-0.0133,-0.0177,-0.0141,-0.0141,-0.0141,-0.0141,-0.0141,-0.0141,-0.0494,-0.0496,-0.055,-0.0548,-0.0568,-0.0539,-0.0429,-0.0364,-0.0256,-0.0197,-0.0169,-0.0135,-0.0134,-0.0176,-0.0141,-0.0141,-0.0141,-0.0141,-0.0141,-0.0569,-0.0574,-0.066,-0.0699,-0.0728,-0.0694,-0.0576,-0.0396,-0.0325,-0.0244,-0.0194,-0.0192,-0.0194,-0.0192,-0.0237,-0.0219,-0.0219,-0.022,0,-0.0625,-0.0631,-0.0763,-0.0848,-0.088,-0.0795,-0.0674,-0.0541,-0.0382,-0.0393,-0.0372,-0.0328,-0.0321,-0.0337,-0.0335,-0.0395,0,0,0,-0.0683,-0.0719,-0.0826,-0.0908,-0.0959,-0.0783,-0.064,-0.0577,-0.0392,-0.0291,-0.0233,-0.023,-0.0221,-0.0144,-0.014,-0.0139,-0.0206,0,0]}]]